Miscellaneous Local Product
Issued by NWS Hastings, NE

Home | Current Version | Previous Version | Text Only | Print | Product List | Glossary Off
Versions: 1 2 3 4 5 6 7 8 9 10 11 12 13 14 15 16 17 18 19 20 21 22 23 24 25 26 27 28 29 30 31 32 33 34 35 36 37 38 39 40 41 42 43 44 45 46 47 48 49 50

000
AXUS43 KGID 190602
MISGRI

GID CWA HOURLY WEATHER ROUNDUP
NATIONAL WEATHER SERVICE HASTINGS NE
100 AM CDT TUE AUG 19 2014

NOTE: "FAIR" INDICATES FEW OR NO CLOUDS BELOW 12,000 FEET WITH NO
SIGNIFICANT WEATHER AND/OR OBSTRUCTIONS TO VISIBILITY.

...SOUTH CENTRAL NEBRASKA...

CITY           SKY/WX    TMP DP  RH WIND       PRES   REMARKS
GRAND ISLAND   FAIR      73  69  87 CALM      29.84F
HASTINGS       FAIR      74  67  78 CALM      29.84F
KEARNEY        FAIR      72  70  94 S5        29.86F
ORD            MOCLDY    67  63  87 S3        29.87R
AURORA         FAIR      70  70 100 CALM      29.84S
LEXINGTON      CLOUDY    73  69  88 SE3       29.89R
HOLDREGE       FAIR      71  65  79 SW5       29.86F
HEBRON         FAIR      73  69  89 CALM      29.80F

...NEBRASKA PANHANDLE...

CITY           SKY/WX    TMP DP  RH WIND       PRES   REMARKS
CHADRON        CLEAR     62  54  74 S3        29.94R
ALLIANCE       PTCLDY    60  55  83 CALM      29.96F
SCOTTSBLUFF    PTCLDY    62  56  80 SW5       29.96F
SIDNEY         CLOUDY    64  54  69 S7        29.99F

...WESTERN AND NORTH CENTRAL NEBRASKA...

CITY           SKY/WX    TMP DP  RH WIND       PRES   REMARKS
VALENTINE      CLEAR     60  57  89 W3        29.90R
AINSWORTH      PTCLDY    62  59  89 CALM      29.90R
ONEILL         CLEAR     67  61  80 NW3       29.85S
BROKEN BOW     MOCLDY    66  63  90 NE3       29.89R
IMPERIAL       PTCLDY    63  57  81 CALM      29.93R
NORTH PLATTE   MOCLDY    65  62  90 SE3       29.90R
MCCOOK         CLOUDY    70  57  63 S9        29.90R

...EASTERN NEBRASKA...

CITY           SKY/WX    TMP DP  RH WIND       PRES   REMARKS
NORFOLK        MOCLDY    71  62  73 SW5       29.84R
SO SIOUX CITY  FAIR      67  64  90 W5        29.78S
TEKAMAH        FAIR      72  68  87 W7        29.80R
COLUMBUS       FAIR      70  66  88 CALM      29.85R
ALBION         FAIR      66  62  87 CALM      29.87R
OMAHA EPPLEY   FAIR      77  69  76 CALM      29.80R
OFFUTT AFB     FAIR      74  73  99 NW2       29.79S
MILLARD        FAIR      73  71  91 CALM      29.79S
LINCOLN        FAIR      74  69  85 W3        29.82S
NEBRASKA CITY  FAIR      72  70  92 SW5       29.80F
BEATRICE       FAIR      72  70  93 CALM      29.80F
FALLS CITY     FAIR      71  69  93 CALM      29.79F

...NORTHERN KANSAS...

CITY           SKY/WX    TMP DP  RH WIND       PRES   REMARKS
GOODLAND       CLOUDY    68  57  68 S16       29.96F
HILL CITY      FAIR      76  55  48 SW16G23   29.83F
NORTON         CLEAR     68  57  68 SE3       29.87R
PHILLIPSBURG   RAIN      66  66 100 SE6       29.82F
BELOIT         CLOUDY    66  64  94 CALM      29.81F
HAYS           MOCLDY    79  54  41 NW23      29.93F
RUSSELL        LGT RAIN  74  56  53 W9        29.87F
CONCORDIA      TSTM      72  69  90 SW26G35   29.84R FOG
SALINA         TSTM      75  63  66 NW21G40   29.85R
TOPEKA         FAIR      75  71  87 CALM      29.80R



USA.gov is the U.S. government's official web portal to all federal, state and local government web resources and services.